Location: L�gaud
(45.7115°N, 1.7775°E)
Time: 13:14:09
(UTC+00:00)

SL-16 R/B - Pass Details

Date: 03 March 2021
Orbit: 843 x 845 km, 71.0° (Epoch: 16 April)

Event Time Altitude Azimuth Distance (km) Brightness Sun altitude
Rises 19:30:09 0° 234° (SW) 3,392 6.0 -19.5°
Reaches altitude 10° 19:32:50 10° 244° (WSW) 2,462 5.3 -20.0°
Maximum altitude 19:37:54 33° 308° (NW) 1,392 3.9 -20.8°
Drops below altitude 10° 19:42:59 10° 11° (NNE) 2,476 4.6 -21.7°
Sets 19:45:42 0° 21° (NNE) 3,416 5.3 -22.1°
